Location: ???????
(55.4362°N, 38.1183°E)
Time: 18:11:10
(UTC+00:00)

Cosmos 405 Rocket - Pass Details

Date: 17 June 2021
Orbit: 489 x 552 km, 81.3° (Epoch: 29 July)

Event Time Altitude Azimuth Distance (km) Brightness Sun altitude
Exits shadow 23:15:44 11° 208° (SSW) 1,651 4.6 -7.9°
Maximum altitude 23:19:16 56° 288° (WNW) 593 2.9 -7.7°
Drops below altitude 10° 23:22:56 10° 7° (N) 1,697 6.7 -7.5°
Sets 23:25:05 0° 12° (NNE) 2,588 8.1 -7.3°
